TimeMST,TemperatureF,Dew PointF,Humidity,Sea Level PressureIn,VisibilityMPH,Wind Direction,Wind SpeedMPH,Gust SpeedMPH,PrecipitationIn,Events,Conditions,WindDirDegrees,DateUTC
12:52 AM,17.1,10.9,77,29.83,10.0,NW,3.5,-,N/A,,Clear,310,2013-02-23 07:52:00
1:52 AM,19.9,10.9,68,29.80,10.0,Calm,Calm,-,N/A,,Clear,0,2013-02-23 08:52:00
2:52 AM,17.1,10.0,74,29.78,10.0,Calm,Calm,-,N/A,,Clear,0,2013-02-23 09:52:00
3:52 AM,12.9,8.1,81,29.76,10.0,Calm,Calm,-,N/A,,Clear,0,2013-02-23 10:52:00
4:52 AM,14.0,8.1,77,29.76,10.0,NW,5.8,-,N/A,,Clear,320,2013-02-23 11:52:00
5:52 AM,19.9,9.0,62,29.75,10.0,WNW,6.9,-,N/A,,Clear,300,2013-02-23 12:52:00
6:52 AM,19.9,10.0,65,29.75,10.0,WNW,8.1,-,N/A,,Clear,300,2013-02-23 13:52:00
7:52 AM,27.0,16.0,63,29.75,10.0,WNW,5.8,-,N/A,,Clear,290,2013-02-23 14:52:00
8:52 AM,34.0,17.1,50,29.74,10.0,WNW,5.8,-,N/A,,Clear,290,2013-02-23 15:52:00
9:52 AM,39.0,14.0,36,29.73,10.0,Calm,Calm,-,N/A,,Clear,0,2013-02-23 16:52:00
10:52 AM,41.0,19.0,41,29.73,10.0,Calm,Calm,-,N/A,,Clear,0,2013-02-23 17:52:00
11:52 AM,43.0,10.0,26,29.72,10.0,SE,4.6,-,N/A,,Mostly Cloudy,140,2013-02-23 18:52:00
12:52 PM,44.1,10.9,26,29.70,10.0,Variable,4.6,-,N/A,,Partly Cloudy,0,2013-02-23 19:52:00
1:52 PM,44.1,12.9,28,29.68,10.0,East,5.8,-,N/A,,Clear,100,2013-02-23 20:52:00
2:52 PM,44.1,10.9,26,29.69,10.0,Calm,Calm,-,N/A,,Clear,0,2013-02-23 21:52:00
3:52 PM,44.1,12.0,27,29.71,10.0,East,3.5,-,N/A,,Mostly Cloudy,100,2013-02-23 22:52:00
4:52 PM,41.0,15.1,35,29.74,10.0,East,6.9,-,N/A,,Mostly Cloudy,80,2013-02-23 23:52:00
5:52 PM,37.9,17.1,43,29.75,10.0,ENE,5.8,-,N/A,,Overcast,60,2013-02-24 00:52:00
6:52 PM,35.1,16.0,46,29.78,10.0,ENE,6.9,-,N/A,,Overcast,70,2013-02-24 01:52:00
7:52 PM,33.1,19.9,59,29.79,10.0,SE,5.8,-,N/A,,Mostly Cloudy,130,2013-02-24 02:52:00
8:52 PM,30.0,19.9,66,29.81,10.0,Calm,Calm,-,N/A,,Overcast,0,2013-02-24 03:52:00
9:52 PM,30.0,21.0,69,29.82,10.0,NW,5.8,-,N/A,,Overcast,310,2013-02-24 04:52:00
10:52 PM,33.1,24.1,70,29.82,10.0,NNW,11.5,-,N/A,,Overcast,340,2013-02-24 05:52:00
11:52 PM,34.0,28.9,82,29.83,10.0,North,11.5,-,N/A,,Overcast,350,2013-02-24 06:52:00